CZ-6A DEB, 56592

Orbit data source: Space-Track

CZ-6A DEB, 56592 is space debris in SSO originally from a launch on Fri, 11 Nov 2022 UTC launched from the Taiyaun Space Center, China (TSC). Debris objects in space refer to the collection of defunct objects orbiting the Earth. Examples of debris include non-operational satellites, rocket bodies, and fragments generated from explosions, collisions, or faulty payload assembly.

Loading next visibility...
Identifier
56592, 2022-151ADQ
Orbit
SSO
Country
Flag of CNCN / PRC
Related business
Manufacturer
SAST
Mission
Spacecraft
Bus & Motor
Unknown
Mass
Unknown
Launch date (UTC)
2022-11-11 (4 years ago)
Launch vehicle
Unknown
Launch site
Taiyaun Space Center, China (TSC)
Object type
Payload
Rocket body
Debris
Shape & HBR
Unknown shape, 0.1 m
Radar Cross Section
Small (<0.1 m²)

Expand to show TLE details & history
Last TLE update: 18 hours ago

TLE from 18 hours ago
0 CZ-6A DEB
1 56592U 22151ADQ 26235.26436668  .00001640  00000-0  77000-3 0  9995
2 56592  98.8171 247.5716 0035279 107.8220 252.6811 14.21143728183618
Epoch: 2026-08-23T06:20Z
TLE epoch observation values (Epoch: 2026-08-23T06:20:41.281Z)
Latitude
0.00006°
Longitude
-179.16333°
Altitude
832.044 km
Speed
7.433 km/s
True Right ascension
16h 30m 17s
True Declination
0° 00' 00"
Sunlit
Object was in daylight at epoch
Visualization orbit readout
Latitude
Unknown
Longitude
Unknown
Altitude
Unknown
Speed
Unknown
Apparent Right ascension
Unknown
Apparent Declination
Unknown
Sunlit
N/A
Visualization observer readout
Local Sidereal Time
15:52:58
Azimuth
Unknown
Elevation
Unknown
Doppler factor
Unknown
Orbital elements
Apogee altitude
844.039 km
Perigee altitude
793.26 km
Semi-major axis
7,196.787 km
Eccentricity
0.00353
Inclination
98.8171°
RAAN
247.5716°
Arg. of periapsis
107.822°
True anomaly
252.29567°
Mean anomaly
252.6811°
Eccentric anomaly
252.48833°
Mean motion
3.55496 °/min
Orbital period
101.27 mins
BSTAR
0.00077
Loading maneuver chart data...
Computing Atmospheric mass density...

Documentation

Showing up to 5 results
|